| time (UTC) | temp F | wind direction | speed knots | gust knots | rain 1hr in | rain 24hr in | rain mn in | humidity % | barometer mb |
| 20260504081513 | 45 | 134 | 0.0 | 0.0 | 0.00 | 0.00 | 0.00 | 89 | 1003.7 |
| 20260504044547 | 42 | 195 | 0.0 | 0.9 | 0.00 | 0.00 | 0.00 | 77 | 1005.2 |
| 20260504043050 | 42 | 359 | 0.0 | 0.0 | 0.00 | 0.00 | 0.00 | 75 | 1005.4 |
| 20260504041542 | 41 | 185 | 0.0 | 6.1 | 0.00 | 0.00 | 0.00 | 74 | 1005.4 |
| 20260504040039 | 41 | 16 | 0.0 | 3.5 | 0.00 | 0.00 | 0.00 | 75 | 1005.2 |
| 20260504034538 | 39 | 131 | 2.6 | 8.7 | 0.00 | 0.00 | 0.00 | 76 | 1005.2 |
| 20260504033041 | 39 | 359 | 0.0 | 0.0 | 0.00 | 0.00 | 0.00 | 78 | 1005.2 |
| 20260504031541 | 39 | 227 | 0.0 | 0.0 | 0.00 | 0.00 | 0.00 | 79 | 1005.2 |
| 20260504030037 | 38 | 228 | 0.0 | 0.0 | 0.00 | 0.00 | 0.00 | 77 | 1005.4 |
| 20260504024537 | 38 | 229 | 0.0 | 0.0 | 0.00 | 0.00 | 0.00 | 76 | 1005.3 |
| 20260504023037 | 38 | 190 | 0.0 | 0.0 | 0.00 | 0.00 | 0.00 | 74 | 1005.5 |
| 20260504021537 | 39 | 190 | 0.0 | 1.7 | 0.00 | 0.00 | 0.00 | 75 | 1005.6 |
| 20260504020035 | 39 | 359 | 0.0 | 0.0 | 0.00 | 0.01 | 0.00 | 74 | 1005.5 |
| 20260504014539 | 39 | 359 | 0.0 | 0.0 | 0.00 | 0.01 | 0.00 | 73 | 1005.6 |
| 20260504013042 | 40 | 228 | 0.0 | 0.0 | 0.00 | 0.01 | 0.00 | 72 | 1005.7 |
| 20260504011537 | 41 | 228 | 0.0 | 0.0 | 0.00 | 0.01 | 0.00 | 71 | 1005.7 |
| 20260504010036 | 41 | 213 | 0.0 | 0.0 | 0.00 | 0.01 | 0.00 | 70 | 1005.7 |
| 20260504004533 | 42 | 100 | 0.0 | 0.0 | 0.00 | 0.01 | 0.00 | 67 | 1005.6 |
| 20260504003036 | 43 | 76 | 0.0 | 0.0 | 0.00 | 0.01 | 0.00 | 65 | 1005.5 |
| 20260504001538 | 44 | 126 | 0.0 | 0.0 | 0.00 | 0.01 | 0.00 | 62 | 1005.3 |
| 20260504000032 | 45 | 143 | 0.0 | 0.0 | 0.00 | 0.01 | 0.00 | 60 | 1005.2 |
| 20260503234532 | 46 | 148 | 0.0 | 0.0 | 0.00 | 0.01 | 0.00 | 58 | 1005.2 |
| 20260503233030 | 47 | 294 | 0.0 | 7.0 | 0.00 | 0.01 | 0.00 | 57 | 1005.1 |
| 20260503231531 | 47 | 241 | 3.5 | 8.7 | 0.00 | 0.01 | 0.00 | 52 | 1005.1 |
| 20260503230029 | 47 | 310 | 0.0 | 3.5 | 0.00 | 0.01 | 0.00 | 52 | 1005.0 |
| 20260503224532 | 48 | 274 | 0.0 | 5.2 | 0.00 | 0.01 | 0.00 | 58 | 1005.0 |
| 20260503223029 | 49 | 303 | 0.0 | 7.0 | 0.00 | 0.01 | 0.00 | 54 | 1005.0 |
| 20260503221529 | 49 | 303 | 6.1 | 13.0 | 0.00 | 0.01 | 0.00 | 42 | 1005.2 |
| 20260503220027 | 50 | 266 | 5.2 | 15.6 | 0.00 | 0.02 | 0.00 | 42 | 1005.3 |
| 20260503214527 | 50 | 305 | 1.7 | 13.9 | 0.00 | 0.02 | 0.00 | 44 | 1005.2 |
| 20260503213023 | 50 | 304 | 7.8 | 15.6 | 0.00 | 0.02 | 0.00 | 43 | 1005.2 |
| 20260503211524 | 50 | 359 | 1.7 | 11.3 | 0.00 | 0.02 | 0.00 | 45 | 1005.0 |
| 20260503210023 | 49 | 359 | 5.2 | 13.9 | 0.00 | 0.02 | 0.00 | 43 | 1005.1 |
| 20260503204523 | 49 | 318 | 6.1 | 12.2 | 0.00 | 0.02 | 0.00 | 43 | 1005.0 |
| 20260503203023 | 49 | 290 | 2.6 | 11.3 | 0.00 | 0.02 | 0.00 | 50 | 1005.2 |
| 20260503201520 | 49 | 359 | 8.7 | 20.0 | 0.00 | 0.02 | 0.00 | 42 | 1005.1 |
| 20260503200020 | 50 | 305 | 2.6 | 12.2 | 0.00 | 0.07 | 0.00 | 48 | 1005.2 |
| 20260503194521 | 50 | 298 | 2.6 | 10.4 | 0.00 | 0.07 | 0.00 | 44 | 1005.5 |
| 20260503193017 | 50 | 310 | 4.3 | 9.6 | 0.00 | 0.07 | 0.00 | 44 | 1005.6 |
| 20260503191528 | 48 | 310 | 11.3 | 15.6 | 0.00 | 0.07 | 0.00 | 46 | 1005.9 |
| 20260503190013 | 49 | 307 | 9.6 | 18.2 | 0.00 | 0.12 | 0.00 | 46 | 1005.9 |
| 20260503184512 | 49 | 310 | 7.8 | 16.5 | 0.00 | 0.12 | 0.00 | 46 | 1006.0 |
| 20260503183007 | 48 | 322 | 9.6 | 19.1 | 0.00 | 0.12 | 0.00 | 47 | 1006.1 |
| 20260503181507 | 46 | 289 | 6.1 | 10.4 | 0.00 | 0.12 | 0.00 | 51 | 1006.4 |
| 20260503180005 | 46 | 308 | 10.4 | 20.0 | 0.00 | 0.13 | 0.00 | 51 | 1006.4 |
| 20260503174503 | 47 | 359 | 5.2 | 10.4 | 0.00 | 0.13 | 0.00 | 54 | 1006.4 |
| 20260503173002 | 46 | 326 | 7.8 | 13.0 | 0.00 | 0.13 | 0.00 | 59 | 1006.6 |
| 20260503171600 | 46 | 299 | 7.8 | 12.2 | 0.00 | 0.13 | 0.00 | 54 | 1006.8 |
| 20260503171500 | 46 | 359 | 7.0 | 11.3 | 0.00 | 0.13 | 0.00 | 55 | 1006.8 |
| 20260503170112 | 45 | 304 | 7.8 | 13.0 | 0.00 | 0.19 | 0.00 | 53 | 1006.9 |
| 20260503160114 | 46 | 305 | 7.0 | 13.9 | 0.00 | 0.19 | 0.00 | 52 | 1007.3 |